Location: Albany
(42.6526°N, 73.7562°W)
Time: 03:22:36
(UTC+00:00)

IRS-1C Rocket - Pass Details

Date: 19 November 2019
Orbit: 800 x 806 km, 99.0° (Epoch: 14 December)

Event Time Altitude Azimuth Distance (km) Brightness Sun altitude
Rises 21:47:49 0° 153° (SSE) 3,307 7.2 -4.0°
Reaches altitude 10° 21:50:10 10° 149° (SSE) 2,381 6.5 -4.4°
Maximum altitude 21:55:20 58° 71° (ENE) 935 4.2 -5.2°
Drops below altitude 10° 22:00:31 10° 354° (N) 2,395 6.4 -6.1°
Sets 22:02:53 0° 350° (N) 3,330 7.2 -6.5°
